| time (UTC) | temp C | wind direction | speed KPH | gust KPH | rain 1hr cm | rain 24hr cm | rain mn cm | humidity % | barometer mb |
| 20260508004542 | 11 | 26 | 0.0 | 0.0 | 0.00 | 0.00 | 0.00 | 57 | 1025.7 |
| 20260508003038 | 12 | 26 | 0.0 | 0.0 | 0.00 | 0.00 | 0.00 | 52 | 1025.7 |
| 20260508001539 | 13 | 26 | 0.0 | 0.0 | 0.00 | 0.00 | 0.00 | 44 | 1025.7 |
| 20260508000037 | 13 | 26 | 0.0 | 0.0 | 0.00 | 0.00 | 0.00 | 42 | 1025.7 |
| 20260507234542 | 14 | 26 | 0.0 | 6.4 | 0.00 | 0.00 | 0.00 | 41 | 1025.7 |
| 20260507233036 | 14 | 26 | 0.0 | 0.0 | 0.00 | 0.00 | 0.00 | 40 | 1025.7 |
| 20260507231543 | 15 | 26 | 0.0 | 0.0 | 0.00 | 0.00 | 0.00 | 39 | 1025.7 |
| 20260507230034 | 15 | 26 | 0.0 | 0.0 | 0.00 | 0.00 | 0.00 | 38 | 1025.7 |
| 20260507224535 | 15 | 27 | 0.0 | 0.0 | 0.00 | 0.00 | 0.00 | 37 | 1025.7 |
| 20260507223034 | 16 | 26 | 0.0 | 6.4 | 0.00 | 0.00 | 0.00 | 37 | 1025.7 |
| 20260507221533 | 16 | 68 | 0.0 | 9.7 | 0.00 | 0.00 | 0.00 | 38 | 1025.7 |
| 20260507220033 | 16 | 65 | 0.0 | 3.2 | 0.00 | 0.00 | 0.00 | 36 | 1025.7 |
| 20260507214531 | 16 | 64 | 0.0 | 8.0 | 0.00 | 0.00 | 0.00 | 36 | 1025.7 |
| 20260507213035 | 16 | 98 | 1.6 | 11.3 | 0.00 | 0.00 | 0.00 | 37 | 1025.7 |
| 20260507211533 | 17 | 47 | 3.2 | 12.9 | 0.00 | 0.00 | 0.00 | 37 | 1025.7 |
| 20260507210030 | 17 | 329 | 0.0 | 6.4 | 0.00 | 0.00 | 0.00 | 35 | 1025.7 |
| 20260507204529 | 17 | 81 | 0.0 | 12.9 | 0.00 | 0.00 | 0.00 | 36 | 1025.7 |
| 20260507203031 | 17 | 20 | 0.0 | 11.3 | 0.00 | 0.00 | 0.00 | 36 | 1025.7 |
| 20260507201529 | 17 | 13 | 0.0 | 8.0 | 0.00 | 0.00 | 0.00 | 35 | 1025.7 |
| 20260507200027 | 17 | 6 | 0.0 | 8.0 | 0.00 | 0.00 | 0.00 | 34 | 1025.7 |
| 20260507194531 | 17 | 54 | 0.0 | 9.7 | 0.00 | 0.00 | 0.00 | 34 | 1025.7 |
| 20260507193026 | 17 | 71 | 0.0 | 9.7 | 0.00 | 0.00 | 0.00 | 33 | 1025.7 |
| 20260507191524 | 17 | 50 | 1.6 | 12.9 | 0.00 | 0.00 | 0.00 | 33 | 1025.7 |
| 20260507190023 | 18 | 36 | 0.0 | 8.0 | 0.00 | 0.00 | 0.00 | 33 | 1025.7 |
| 20260507184521 | 18 | 324 | 0.0 | 11.3 | 0.00 | 0.00 | 0.00 | 33 | 1025.7 |
| 20260507183020 | 18 | 88 | 4.8 | 12.9 | 0.00 | 0.00 | 0.00 | 36 | 1025.7 |
| 20260507181518 | 18 | 61 | 1.6 | 12.9 | 0.00 | 0.00 | 0.00 | 34 | 1025.7 |
| 20260507180016 | 18 | 33 | 0.0 | 8.0 | 0.00 | 0.00 | 0.00 | 39 | 1025.7 |
| 20260507174516 | 18 | 77 | 1.6 | 11.3 | 0.00 | 0.00 | 0.00 | 37 | 1025.7 |
| 20260507173026 | 18 | 339 | 0.0 | 9.7 | 0.00 | 0.00 | 0.00 | 39 | 1025.7 |
| 20260507171513 | 17 | 79 | 3.2 | 14.5 | 0.00 | 0.00 | 0.00 | 43 | 1025.7 |
| 20260507170008 | 17 | 88 | 0.0 | 11.3 | 0.00 | 0.00 | 0.00 | 52 | 1025.7 |
| 20260507164507 | 17 | 280 | 1.6 | 9.7 | 0.00 | 0.00 | 0.00 | 56 | 1025.7 |
| 20260507163006 | 16 | 12 | 0.0 | 8.0 | 0.00 | 0.00 | 0.00 | 56 | 1025.7 |
| 20260507161514 | 17 | 29 | 0.0 | 3.2 | 0.00 | 0.00 | 0.00 | 55 | 1025.7 |
| 20260507160003 | 17 | 51 | 0.0 | 8.0 | 0.00 | 0.00 | 0.00 | 56 | 1025.7 |
| 20260507154600 | 16 | 14 | 0.0 | 6.4 | 0.00 | 0.00 | 0.00 | 57 | 1025.7 |
| 20260507153058 | 16 | 45 | 0.0 | 6.4 | 0.00 | 0.00 | 0.00 | 54 | 1025.7 |
| 20260507151558 | 16 | 14 | 0.0 | 11.3 | 0.00 | 0.00 | 0.00 | 57 | 1025.7 |
| 20260507150055 | 16 | 27 | 0.0 | 3.2 | 0.00 | 0.00 | 0.00 | 52 | 1025.7 |
| 20260507144614 | 16 | 307 | 0.0 | 6.4 | 0.00 | 0.00 | 0.00 | 55 | 1025.7 |
| 20260507143049 | 16 | 109 | 0.0 | 6.4 | 0.00 | 0.00 | 0.00 | 58 | 1025.7 |
| 20260507141553 | 15 | 125 | 0.0 | 6.4 | 0.00 | 0.00 | 0.00 | 59 | 1025.7 |
| 20260507140039 | 15 | 45 | 0.0 | 3.2 | 0.00 | 0.00 | 0.00 | 60 | 1025.7 |
| 20260507134537 | 14 | 46 | 0.0 | 8.0 | 0.00 | 0.00 | 0.00 | 64 | 1025.7 |
| 20260507133036 | 13 | 244 | 0.0 | 1.6 | 0.00 | 0.00 | 0.00 | 66 | 1025.7 |
| 20260507131527 | 13 | 37 | 0.0 | 3.2 | 0.00 | 0.00 | 0.00 | 72 | 1025.7 |
| 20260507130022 | 12 | 52 | 0.0 | 0.0 | 0.00 | 0.00 | 0.00 | 77 | 1025.7 |
| 20260507124517 | 11 | 54 | 0.0 | 11.3 | 0.00 | 0.00 | 0.00 | 77 | 1025.7 |
| 20260507123013 | 11 | 72 | 0.0 | 6.4 | 0.00 | 0.00 | 0.00 | 77 | 1025.7 |
| 20260507121512 | 10 | 72 | 0.0 | 0.0 | 0.00 | 0.00 | 0.00 | 82 | 1025.7 |
| 20260507120010 | 10 | 151 | 0.0 | 0.0 | 0.00 | 0.00 | 0.00 | 83 | 1025.7 |
| 20260507114509 | 10 | 151 | 0.0 | 0.0 | 0.00 | 0.00 | 0.00 | 85 | 1025.7 |
| 20260507113012 | 9 | 151 | 0.0 | 0.0 | 0.00 | 0.00 | 0.00 | 86 | 1025.7 |
| 20260507111506 | 9 | 151 | 0.0 | 0.0 | 0.00 | 0.00 | 0.00 | 88 | 1025.7 |
| 20260507110005 | 9 | 151 | 0.0 | 0.0 | 0.00 | 0.00 | 0.00 | 89 | 1025.7 |
| 20260507104503 | 9 | 152 | 0.0 | 0.0 | 0.00 | 0.00 | 0.00 | 90 | 1025.7 |
| 20260507103003 | 9 | 151 | 0.0 | 0.0 | 0.00 | 0.00 | 0.00 | 90 | 1025.7 |
| 20260507101501 | 9 | 151 | 0.0 | 0.0 | 0.00 | 0.00 | 0.00 | 91 | 1025.7 |
| 20260507100059 | 9 | 151 | 0.0 | 0.0 | 0.00 | 0.00 | 0.00 | 90 | 1025.7 |
| 20260507094558 | 9 | 151 | 0.0 | 0.0 | 0.00 | 0.00 | 0.00 | 90 | 1025.7 |
| 20260507093100 | 9 | 151 | 0.0 | 0.0 | 0.00 | 0.00 | 0.00 | 90 | 1025.7 |
| 20260507091559 | 9 | 152 | 0.0 | 0.0 | 0.00 | 0.00 | 0.00 | 89 | 1025.7 |
| 20260507090054 | 10 | 151 | 0.0 | 0.0 | 0.00 | 0.00 | 0.00 | 90 | 1025.7 |
| 20260507084553 | 10 | 152 | 0.0 | 0.0 | 0.00 | 0.00 | 0.00 | 91 | 1025.7 |
| 20260507083051 | 10 | 152 | 0.0 | 0.0 | 0.00 | 0.00 | 0.00 | 90 | 1025.7 |
| 20260507081548 | 10 | 152 | 0.0 | 3.2 | 0.00 | 0.00 | 0.00 | 90 | 1025.7 |
| 20260507080047 | 11 | 98 | 0.0 | 0.0 | 0.00 | 0.00 | 0.00 | 89 | 1025.7 |
| 20260507074545 | 11 | 98 | 0.0 | 0.0 | 0.00 | 0.00 | 0.00 | 88 | 1025.7 |
| 20260507073043 | 11 | 98 | 0.0 | 0.0 | 0.00 | 0.00 | 0.00 | 89 | 1025.7 |
| 20260507071542 | 11 | 98 | 0.0 | 0.0 | 0.00 | 0.00 | 0.00 | 90 | 1025.7 |
| 20260507070044 | 11 | 98 | 0.0 | 0.0 | 0.00 | 0.00 | 0.00 | 90 | 1025.7 |
| 20260507064542 | 11 | 98 | 0.0 | 0.0 | 0.00 | 0.00 | 0.00 | 89 | 1025.7 |
| 20260507063046 | 11 | 98 | 0.0 | 0.0 | 0.00 | 0.00 | 0.00 | 88 | 1025.7 |
| 20260507061538 | 11 | 98 | 0.0 | 0.0 | 0.00 | 0.00 | 0.00 | 90 | 1025.7 |
| 20260507060048 | 11 | 98 | 0.0 | 0.0 | 0.00 | 0.00 | 0.00 | 90 | 1025.7 |
| 20260507054544 | 12 | 98 | 0.0 | 6.4 | 0.00 | 0.00 | 0.00 | 90 | 1025.7 |
| 20260507053031 | 12 | 3 | 0.0 | 0.0 | 0.00 | 0.00 | 0.00 | 91 | 1025.7 |
| 20260507051529 | 13 | 3 | 0.0 | 0.0 | 0.00 | 0.00 | 0.00 | 92 | 1025.7 |
| 20260507050026 | 13 | 3 | 0.0 | 3.2 | 0.00 | 0.00 | 0.00 | 92 | 1025.7 |
| 20260507044544 | 13 | 273 | 0.0 | 0.0 | 0.00 | 0.00 | 0.00 | 92 | 1025.7 |
| 20260507043022 | 14 | 273 | 0.0 | 0.0 | 0.00 | 0.00 | 0.00 | 92 | 1025.7 |
| 20260507041519 | 15 | 273 | 0.0 | 0.0 | 0.00 | 0.00 | 0.00 | 93 | 1025.7 |
| 20260507040017 | 15 | 273 | 0.0 | 0.0 | 0.00 | 0.00 | 0.00 | 93 | 1025.7 |
| 20260507034516 | 15 | 273 | 0.0 | 0.0 | 0.00 | 0.00 | 0.00 | 93 | 1025.7 |
| 20260507033016 | 15 | 273 | 0.0 | 3.2 | 0.00 | 0.00 | 0.00 | 93 | 1025.7 |
| 20260507031516 | 15 | 271 | 0.0 | 0.0 | 0.00 | 0.00 | 0.00 | 93 | 1025.7 |
| 20260507030016 | 15 | 270 | 0.0 | 0.0 | 0.00 | 0.00 | 0.00 | 93 | 1025.7 |
| 20260507024515 | 15 | 246 | 0.0 | 0.0 | 0.00 | 0.00 | 0.00 | 93 | 1025.7 |
| 20260507023014 | 15 | 244 | 0.0 | 0.0 | 0.00 | 0.00 | 0.00 | 93 | 1025.7 |
| 20260507021519 | 15 | 244 | 0.0 | 0.0 | 0.00 | 0.00 | 0.00 | 93 | 1025.7 |
| 20260507020013 | 15 | 244 | 0.0 | 0.0 | 0.00 | 0.00 | 0.00 | 93 | 1025.7 |
| 20260507014513 | 15 | 243 | 0.0 | 0.0 | 0.00 | 0.00 | 0.00 | 93 | 1025.7 |
| 20260507013011 | 15 | 243 | 0.0 | 0.0 | 0.00 | 0.00 | 0.00 | 93 | 1025.7 |
| 20260507011511 | 15 | 243 | 0.0 | 0.0 | 0.00 | 0.00 | 0.00 | 93 | 1025.7 |
| 20260507010011 | 15 | 244 | 0.0 | 6.4 | 0.00 | 0.00 | 0.00 | 93 | 1025.7 |